• Processing (Info)

  • MPEC 2023-F120 : 2023 FL3

    The following Minor Planet Electronic Circular may be linked-to from your own Web pages, but must not otherwise be redistributed electronically.

    A form allowing access to any MPEC is at the bottom of this page.


    Read MPEC 2023-F119 Read MPEC 2023-F121


    M.P.E.C. 2023-F120                               Issued 2023 March 23, 22:16 UT
    
         The Minor Planet Electronic Circulars contain information on unusual
             minor planets, routine data on comets and natural satellites,
             and occasional editorial announcements.  They are published
        on behalf of Division F of the International Astronomical Union by the
              Minor Planet Center, Smithsonian Astrophysical Observatory,
                              Cambridge, MA 02138, U.S.A.
    			  
                 Prepared using the Tamkin Foundation Computer Network
    
                                  MPC@CFA.HARVARD.EDU
                URL https://www.minorplanetcenter.net/    ISSN 1523-6714
    
                                    2023 FL3                                 
    
    
    Observations:
         K23F03L* C2023 03 23.02449112 54 02.96 +16 47 27.3          18.5 RoEF120K88
         K23F03L  C2023 03 23.02497012 54 04.49 +16 47 39.5          18.4 RoEF120K88
         K23F03L  C2023 03 23.02544912 54 06.00 +16 47 53.3          18.2 RoEF120K88
         K23F03L  C2023 03 23.02688512 54 10.40 +16 48 30.2          18.7 RoEF120K88
         K23F03L  C2023 03 23.02880312 54 16.36 +16 49 19.4          18.5 RoEF120K88
         K23F03L  C2023 03 23.03625312 54 39.04 +16 52 28.5          18.6 RoEF120K88
         K23F03L  C2023 03 23.03721012 54 41.93 +16 52 52.6          18.6 RoEF120K88
         K23F03L  C2023 03 23.03768912 54 43.44 +16 53 05.5          18.5 RoEF120K88
         K23F03L KC2023 03 23.04674012 55 11.23 +16 56 55.9          18.5 RoEF120K88
         K23F03L KC2023 03 23.04765712 55 13.99 +16 57 19.2          18.6 RoEF120K88
         K23F03L KC2023 03 23.04857312 55 16.82 +16 57 42.4          18.7 RoEF120K88
         K23F03L KC2023 03 23.05040712 55 22.38 +16 58 28.2          18.6 RoEF120K88
         K23F03L KC2023 03 23.05995112 55 53.44 +17 02 53.8          18.4 GVEF120L01
         K23F03L KC2023 03 23.06051612 55 55.17 +17 03 08.0          18.6 GVEF120L01
         K23F03L KC2023 03 23.06108312 55 56.89 +17 03 22.6          18.7 GVEF120L01
         K23F03L KC2023 03 23.06165012 55 58.60 +17 03 36.9          18.7 GVEF120L01
         K23F03L KC2023 03 23.06221612 56 00.31 +17 03 51.0          18.8 GVEF120L01
         K23F03L KC2023 03 23.06335112 56 03.73 +17 04 19.3          18.6 GVEF120L01
         K23F03L KC2023 03 23.06448212 56 07.19 +17 04 47.6          18.5 GVEF120L01
         K23F03L KC2023 03 23.06561712 56 10.62 +17 05 16.2          18.7 GVEF120L01
         K23F03L KC2023 03 23.10293312 58 02.15 +17 20 13.9          18.5 RoEF120K88
         K23F03L KC2023 03 23.10384912 58 04.96 +17 20 36.5          18.8 RoEF120K88
         K23F03L KC2023 03 23.10476612 58 07.74 +17 20 58.8          18.5 RoEF120K88
         K23F03L KC2023 03 23.10660112 58 13.33 +17 21 44.0          18.8 RoEF120K88
         K23F03L KC2023 03 23.12137912 58 58.05 +17 27 42.5          18.9 RoEF120K88
         K23F03L KC2023 03 23.12302212 59 03.05 +17 28 22.5          18.7 RoEF120K88
         K23F03L KC2023 03 23.81168213 32 05.31 +21 26 42.6          19.2 RoEF120K88
         K23F03L KC2023 03 23.83744413 33 08.75 +21 34 22.7          19.0 RoEF120K88
         K23F03L KC2023 03 23.84107913 33 17.65 +21 35 27.0          19.4 RoEF120K88
         K23F03L KC2023 03 23.86409213 34 15.47 +21 42 12.2          19.3 GXEF120595
         K23F03L KC2023 03 23.87097713 34 32.09 +21 44 13.2          19.7 GXEF120595
         K23F03L KC2023 03 23.87786613 34 48.65 +21 46 12.6          19.3 GXEF120595
    
    Observer details:
    595 Farra d'Isonzo.  Observers G. Panterotto, E. Pettarin.  Measurer E.
        Pettarin.  0.61-m f/4.5 reflector + CCD.
    K88 GINOP-KHK, Piszkesteto.  Observer K. Sarneczky.  0.60-m Schmidt + CCD.
    L01 Visnjan Observatory, Tican.  Observer K. Korlevic.  1.0-m f/2.9 reflector
        + CCD.
    
    Orbital elements:
    2023 FL3                                                 Earth MOID = 0.0134 AU
    Epoch 2023 Feb. 25.0 TT = JDT 2460000.5                 Veres                   
    M 354.83816              (2000.0)            P               Q                  
    n   0.42289315     Peri.  345.42361     -0.96911000     -0.24662637             
    a   1.7578519      Node   180.30515     +0.24199339     -0.95001466             
    e   0.4311080      Incl.   12.06270     +0.04759205     -0.19143558             
    P   2.33           H   26.80          G   0.15           U   8                  
    Residuals in seconds of arc
    230323 K88  1.5-  0.7-    230323 K88  0.2+  0.2-    230323 K88  0.2+  0.3-
    230323 K88  0.6-  0.8-    230323 L01  0.2+  0.1+    230323 K88  0.6+  0.1+
    230323 K88  0.0   0.7+    230323 L01  0.4+  0.0     230323 K88  0.4-  0.3-
    230323 K88  0.1-  0.7+    230323 L01  0.4+  0.4+    230323 K88  0.1-  0.1-
    230323 K88  1.1+  0.8+    230323 L01  0.3+  0.4+    230323 K88  0.2+  0.2-
    230323 K88  0.8-  0.6-    230323 L01  0.2+  0.3+    230323 K88  0.3-  0.1+
    230323 K88  1.4-  0.9-    230323 L01  0.1-  0.1+    230323 K88  0.0   0.0
    230323 K88  0.8-  0.2-    230323 L01  0.3+  0.0     230323 595  0.1+  0.2-
    230323 K88  0.9+  0.3+    230323 L01  0.1+  0.1+    230323 595  0.5+  0.8+
    230323 K88  0.3+  0.4+    230323 K88  0.2-  0.4-    230323 595  0.9+  0.6+
    230323 K88  0.8+  0.4+    230323 K88  0.3+  0.2-
    
    Ephemeris:
    2023 FL3                 a,e,i = 1.76, 0.43, 12                  q = 1.0000
    Date    TT    R. A. (2000) Decl.     Delta      r    Elong.  Phase     V
    2023 02 21    05 20 18.8 -33 12 40   0.1411  1.0165    97.3    74.8    25.2
    ...
    2023 03 08    05 46 29.5 -32 53 53   0.06924 1.0001    94.5    81.6    23.9
    ...
    2023 03 16    06 57 36.4 -30 07 16   0.03025 1.0030   105.4    72.9    21.8
    ...
    2023 03 22    11 51 39.7 +07 40 23   0.01432 1.0104   171.5     8.3    18.2
    2023 03 23    12 52 48.0 +16 41 08   0.01660 1.0120   159.2    20.5    18.9
    2023 03 24    13 39 25.7 +22 22 43   0.02001 1.0138   148.0    31.4    19.7
    ...
    2023 03 30    15 30 39.1 +30 58 46   0.04783 1.0268   125.3    52.5    22.2
    ...
    2023 04 07    16 03 05.6 +31 56 29   0.08837 1.0503   122.1    53.8    23.6
    ...
    2023 04 22    16 12 10.5 +30 58 48   0.1651  1.1104   126.2    46.9    24.9
    
    M. P. C. Staff               (C) Copyright 2023 MPC           M.P.E.C. 2023-F120
    


    Read MPEC 2023-F119 Read MPEC 2023-F121


    MPEC number:

    Enter an MPEC number in one of the following forms:

    • 1997-B01 (the full form)
    • J97B01 (the packed version of the full form)
    • B01 (the abbreviated form)